SL-3 R/B (877 NORAD) Tracking and Keplerian Element Data

This shows tracking and keplerian element data for the satellite.

Feedback or suggestion? Click here.




ElementValue
Catalog877
NameSL-3 R/B
Epoch Orbit15183
Epoch Day12.67313286
Epoch Year2024
RAAN116.3943
Inclination65.0774
Eccentricity0.0081502
Argument of Perigee252.306
Mean Anonmoly106.913
Mean Motion14.60119476
Decay Rate8.7E-06
L11 00877U 64053B 24012.67313286 .00000870 00000+0 19684-3 0 9990
L22 00877 65.0774 116.3943 0081502 252.3060 106.9130 14.60119476151831



Live tracking and technical data element details for SL-3 R/B (NORAD 877). SL-3 R/B can be tracked NOW for your location showing map with azimuth and elevation plus other details from your city location.







IsCatalogInMostPopularTable: catalog: 877, numindb: 286
Update: records affected: 1



GetName: 877 SL-3 R/B

Hit Count: updated at: Fri, 19 Apr 2024 11:42:24 GMT